Home   Weather   Biel   Past weeks

Flag for Switzerland Past Weather in Biel, Switzerland — Yesterday and Last 2 Weeks

Now
73 °F

Mild.


Feels Like: 76 °F
Forecast: 62 / 74 °F
Wind: 3 mph from West

Location: Grenchen

Current Time: Jul 22, 2017 at 2:49:00 pm

Latest Report: Jul 22, 2017 at 1:00 pm


Visibility: N/A

Pressure: 29.95 "Hg

Humidity: 67%

Dew Point: 62 °F

Location of BielLocation

Past Weather in Biel — Graph

°F

Biel Temperature Yesterday

Maximum temperature yesterday: 82 °F (at 3:00 pm)
Minimum temperature yesterday: 63 °F (at 4:00 am)
Average temperature yesterday: 70 °F

High & Low Weather Summary for the Past Weeks

 TemperatureHumidityPressure
High89 °F (Jul 7, 4:00 pm)99% (Jul 10, 4:00 am)30.29 "Hg (Jul 10, 4:00 am)
Low51 °F (Jul 16, 3:00 am)31% (Jul 19, 4:00 pm)29.77 "Hg (Jul 21, 5:00 pm)
Average69 °F70%30.01 "Hg
* Reported Jul 7 1:00 pm — Jul 22 1:00 pm, Biel. Weather by CustomWeather, © 2017

Note: Actual official high and low records may vary slightly from our data, if they occured in-between our weather recording intervals... More about our weather records

Advertising

Biel Weather History for the Previous 24 Hours

Scroll right to see more
 ConditionsComfort  
Time TempWeatherWind HumidityBarometerVisibility
1:00 pm
Sat, Jul 22
73 °FMild.3 mph67%29.95 "HgN/A
12:00 pm71 °FMild.5 mph71%29.97 "HgN/A
11:00 am69 °FMild.3 mph75%29.98 "HgN/A
10:00 am67 °FMild.3 mph81%29.98 "HgN/A
9:00 am65 °FMild.2 mph88%29.98 "HgN/A
8:00 am63 °FMild.2 mph95%29.99 "HgN/A
7:00 am62 °FCool.No wind95%29.98 "HgN/A
6:00 am62 °FCool.1 mph96%29.98 "HgN/A
5:00 am62 °FCool.No wind98%29.96 "HgN/A
4:00 am60 °FCool.2 mph98%29.96 "HgN/A
3:00 am62 °FMild.2 mph97%29.95 "HgN/A
2:00 am64 °FMild.2 mph95%29.95 "HgN/A
1:00 am64 °FMild.3 mph95%29.95 "HgN/A
12:00 am64 °FMild.3 mph94%29.96 "HgN/A
11:00 pm
Fri, Jul 21
65 °FMild.6 mph94%29.96 "HgN/A
10:00 pm64 °FMild.5 mph94%29.93 "HgN/A
9:00 pm65 °FMild.3 mph92%29.91 "HgN/A
8:00 pm66 °FMild.1 mph89%29.89 "HgN/A
7:00 pm65 °FMild.6 mph88%29.91 "HgN/A
6:00 pm65 °FMild.12 mph86%29.89 "HgN/A
5:00 pm79 °FWarm.2 mph53%29.77 "HgN/A
4:00 pm81 °FWarm.5 mph47%29.78 "HgN/A
3:00 pm82 °FWarm.7 mph48%29.80 "HgN/A
2:00 pm80 °FWarm.5 mph52%29.83 "HgN/A
Weather by CustomWeather, © 2017

See weather overviewHow to use our weather pages